LNR536F EGJJ-EGAA

Flight info

Callsign LNR536F
Flight time 1h 12m
Altitude 24000
Route SKERY L22 EMWIP P16 FIMCA/N0434F360 DCT TOJAQ DCT UNFIT DCT PENWU DCT NICXI DCT VATRY DCT DUB/N0359F230 N34 BELZU
Aircraft A320/M-SDE3FGHIRWY/LB1

Departure

Time 2026-05-05 11:51
Airport Jersey Airport (EGJJ)

Arrival

Time 2026-05-05 13:03
Airport Belfast International Airport (EGAA)
Time Latitude Longitude Altitude Speed Heading
2026-05-05 11:29 49.20555 -2.19753 287 ft 0 kts 173°
2026-05-05 11:42 49.20566 -2.19755 287 ft 4 kts 171°
2026-05-05 11:43 49.20592 -2.19764 284 ft 4 kts 154°
2026-05-05 11:43 49.20610 -2.19786 288 ft 4 kts 97°
2026-05-05 11:43 49.20611 -2.19796 287 ft 0 kts 83°
2026-05-05 11:46 49.20612 -2.19786 288 ft 3 kts 79°
2026-05-05 11:46 49.20604 -2.19785 294 ft 0 kts 189°
2026-05-05 11:47 49.20603 -2.19792 293 ft 1 kts 238°
2026-05-05 11:47 49.20604 -2.19810 284 ft 3 kts 269°
2026-05-05 11:47 49.20604 -2.19859 284 ft 9 kts 269°
2026-05-05 11:47 49.20572 -2.19933 284 ft 8 kts 200°
2026-05-05 11:48 49.20524 -2.20016 284 ft 5 kts 283°
2026-05-05 11:48 49.20537 -2.20087 286 ft 9 kts 286°
2026-05-05 11:48 49.20553 -2.20170 287 ft 7 kts 286°
2026-05-05 11:49 49.20575 -2.20276 284 ft 14 kts 287°
2026-05-05 11:49 49.20605 -2.20430 289 ft 15 kts 287°
2026-05-05 11:49 49.20626 -2.20587 284 ft 15 kts 274°
2026-05-05 11:49 49.20668 -2.20701 284 ft 13 kts 351°
2026-05-05 11:50 49.20710 -2.20589 283 ft 15 kts 83°
2026-05-05 11:50 49.20740 -2.20251 283 ft 66 kts 83°
2026-05-05 11:50 49.20830 -2.19184 287 ft 132 kts 83°
2026-05-05 11:50 49.20939 -2.17618 637 ft 151 kts 78°
2026-05-05 11:51 49.21054 -2.15998 1324 ft 156 kts 78°
2026-05-05 11:51 49.21209 -2.14321 1771 ft 169 kts 76°
2026-05-05 11:51 49.21477 -2.12463 2048 ft 187 kts 66°
2026-05-05 11:51 49.22120 -2.10620 2289 ft 208 kts 51°
2026-05-05 11:52 49.23198 -2.08997 2700 ft 228 kts 33°
2026-05-05 11:52 49.24646 -2.07951 3561 ft 234 kts 16°
2026-05-05 11:52 49.26289 -2.07672 4343 ft 245 kts 358°
2026-05-05 11:52 49.27989 -2.08304 4906 ft 260 kts 339°
2026-05-05 11:53 49.29465 -2.09937 4998 ft 266 kts 315°
2026-05-05 11:53 49.30396 -2.12386 5014 ft 271 kts 293°
2026-05-05 11:53 49.31040 -2.15100 5057 ft 270 kts 297°
2026-05-05 11:53 49.31875 -2.17675 5052 ft 270 kts 303°
2026-05-05 11:54 49.32862 -2.20104 5016 ft 267 kts 308°
2026-05-05 11:54 49.33987 -2.22355 5009 ft 266 kts 314°
2026-05-05 11:54 49.35246 -2.24415 5005 ft 263 kts 320°
2026-05-05 11:54 49.36605 -2.26285 5003 ft 262 kts 322°
2026-05-05 11:55 49.37982 -2.28128 5007 ft 262 kts 322°
2026-05-05 11:55 49.39354 -2.29966 5009 ft 262 kts 322°
2026-05-05 11:55 49.40727 -2.31812 5008 ft 262 kts 322°
2026-05-05 11:55 49.42098 -2.33657 5009 ft 262 kts 322°
2026-05-05 11:56 49.43471 -2.35501 5007 ft 262 kts 322°
2026-05-05 11:56 49.44837 -2.37336 5005 ft 261 kts 322°
2026-05-05 11:56 49.46207 -2.39177 5010 ft 261 kts 322°
2026-05-05 11:56 49.47579 -2.41066 5349 ft 270 kts 321°
2026-05-05 11:57 49.48941 -2.43008 6159 ft 271 kts 320°
2026-05-05 11:57 49.50320 -2.44998 6958 ft 272 kts 320°
2026-05-05 11:57 49.51699 -2.46994 7918 ft 272 kts 320°
2026-05-05 11:57 49.53090 -2.49004 8783 ft 277 kts 319°
2026-05-05 11:58 49.54507 -2.51044 9632 ft 281 kts 320°
2026-05-05 11:58 49.55954 -2.53126 10282 ft 292 kts 319°
2026-05-05 11:58 49.57502 -2.55342 10556 ft 315 kts 319°
2026-05-05 11:58 49.59138 -2.57686 11136 ft 325 kts 319°
2026-05-05 11:59 49.60802 -2.60081 11924 ft 329 kts 319°
2026-05-05 11:59 49.62486 -2.62511 12721 ft 333 kts 319°
2026-05-05 11:59 49.64189 -2.64974 13507 ft 337 kts 319°
2026-05-05 11:59 49.65906 -2.67465 14217 ft 341 kts 319°
2026-05-05 12:00 49.67643 -2.69988 14874 ft 346 kts 319°
2026-05-05 12:00 49.69404 -2.72545 15556 ft 348 kts 320°
2026-05-05 12:00 49.71178 -2.75119 16195 ft 352 kts 320°
2026-05-05 12:00 49.72979 -2.77731 16777 ft 358 kts 318°
2026-05-05 12:01 49.74184 -2.79479 17165 ft 361 kts 318°
2026-05-05 12:01 49.76030 -2.82155 17785 ft 366 kts 318°
2026-05-05 12:01 49.77890 -2.84861 18350 ft 370 kts 317°
2026-05-05 12:01 49.79779 -2.87620 18863 ft 375 kts 317°
2026-05-05 12:02 49.81678 -2.90397 19412 ft 378 kts 317°
2026-05-05 12:02 49.83601 -2.93212 19934 ft 382 kts 318°
2026-05-05 12:02 49.85541 -2.96055 20475 ft 386 kts 317°
2026-05-05 12:02 49.87495 -2.98917 21045 ft 388 kts 317°
2026-05-05 12:03 49.89466 -3.01799 21615 ft 391 kts 317°
2026-05-05 12:03 49.91458 -3.04720 22133 ft 395 kts 317°
2026-05-05 12:03 49.93460 -3.07660 22728 ft 397 kts 316°
2026-05-05 12:03 49.95468 -3.10616 23273 ft 400 kts 316°
2026-05-05 12:04 49.97495 -3.13603 23757 ft 404 kts 316°
2026-05-05 12:04 49.99485 -3.16716 23960 ft 406 kts 310°
2026-05-05 12:04 50.01141 -3.20258 23997 ft 405 kts 301°
2026-05-05 12:04 50.02562 -3.24035 24005 ft 404 kts 300°
2026-05-05 12:05 50.04048 -3.27737 24011 ft 404 kts 307°
2026-05-05 12:05 50.05896 -3.31021 24013 ft 404 kts 317°
2026-05-05 12:05 50.08090 -3.33758 24010 ft 405 kts 327°
2026-05-05 12:05 50.10544 -3.35913 24013 ft 405 kts 333°
2026-05-05 12:06 50.13045 -3.37920 24008 ft 404 kts 333°
2026-05-05 12:06 50.15537 -3.39934 24001 ft 404 kts 333°
2026-05-05 12:06 50.18041 -3.41961 24010 ft 405 kts 333°
2026-05-05 12:06 50.20549 -3.43988 24008 ft 406 kts 333°
2026-05-05 12:07 50.23063 -3.46019 24019 ft 406 kts 333°
2026-05-05 12:07 50.25569 -3.48045 24009 ft 406 kts 333°
2026-05-05 12:07 50.28080 -3.50076 24013 ft 406 kts 333°
2026-05-05 12:07 50.30557 -3.52083 24017 ft 406 kts 333°
2026-05-05 12:08 50.33070 -3.54121 24011 ft 407 kts 333°
2026-05-05 12:08 50.35583 -3.56159 24016 ft 407 kts 333°
2026-05-05 12:08 50.38090 -3.58196 24014 ft 406 kts 332°
2026-05-05 12:08 50.40594 -3.60238 24017 ft 406 kts 332°
2026-05-05 12:09 50.43103 -3.62287 24021 ft 407 kts 332°
2026-05-05 12:09 50.45607 -3.64336 24013 ft 406 kts 332°
2026-05-05 12:09 50.48112 -3.66387 24014 ft 405 kts 332°
2026-05-05 12:09 50.50644 -3.68327 24017 ft 405 kts 335°
2026-05-05 12:10 50.53220 -3.70123 24013 ft 406 kts 336°
2026-05-05 12:10 50.55830 -3.71844 24017 ft 407 kts 336°
2026-05-05 12:10 50.58450 -3.73540 24024 ft 407 kts 337°
2026-05-05 12:10 50.61064 -3.75243 24018 ft 407 kts 336°
2026-05-05 12:11 50.63672 -3.76970 24027 ft 407 kts 336°
2026-05-05 12:11 50.66276 -3.78728 24021 ft 407 kts 336°
2026-05-05 12:11 50.68870 -3.80502 24019 ft 406 kts 335°
2026-05-05 12:11 50.71460 -3.82286 24022 ft 406 kts 335°
2026-05-05 12:12 50.74049 -3.84074 24025 ft 406 kts 335°
2026-05-05 12:12 50.76644 -3.85863 24027 ft 407 kts 335°
2026-05-05 12:12 50.79237 -3.87651 24025 ft 407 kts 335°
2026-05-05 12:12 50.81828 -3.89441 24025 ft 406 kts 335°
2026-05-05 12:13 50.84423 -3.91230 24028 ft 406 kts 335°
2026-05-05 12:13 50.87016 -3.93015 24029 ft 407 kts 336°
2026-05-05 12:13 50.89612 -3.94803 24024 ft 406 kts 335°
2026-05-05 12:13 50.92202 -3.96591 24025 ft 406 kts 335°
2026-05-05 12:14 50.94791 -3.98385 24024 ft 406 kts 335°
2026-05-05 12:14 50.97385 -4.00183 24022 ft 407 kts 335°
2026-05-05 12:14 50.99945 -4.01955 24029 ft 407 kts 336°
2026-05-05 12:14 51.02537 -4.03749 24031 ft 406 kts 335°
2026-05-05 12:15 51.05127 -4.05549 24029 ft 406 kts 335°
2026-05-05 12:15 51.07713 -4.07352 24030 ft 407 kts 335°
2026-05-05 12:15 51.10305 -4.09159 24032 ft 406 kts 335°
2026-05-05 12:15 51.12891 -4.10964 24026 ft 406 kts 335°
2026-05-05 12:16 51.15479 -4.12775 24028 ft 406 kts 335°
2026-05-05 12:16 51.18067 -4.14585 24032 ft 406 kts 335°
2026-05-05 12:16 51.20656 -4.16395 24034 ft 406 kts 335°
2026-05-05 12:16 51.23244 -4.18204 24028 ft 406 kts 335°
2026-05-05 12:17 51.25828 -4.20018 24044 ft 406 kts 335°
2026-05-05 12:17 51.28408 -4.21835 24033 ft 405 kts 335°
2026-05-05 12:17 51.30984 -4.23649 24036 ft 405 kts 335°
2026-05-05 12:17 51.33564 -4.25468 24033 ft 405 kts 335°
2026-05-05 12:18 51.36133 -4.27282 24037 ft 404 kts 335°
2026-05-05 12:18 51.38715 -4.29106 24034 ft 404 kts 335°
2026-05-05 12:18 51.41256 -4.30898 24038 ft 404 kts 335°
2026-05-05 12:18 51.43854 -4.32754 24036 ft 404 kts 334°
2026-05-05 12:19 51.46368 -4.34621 24037 ft 404 kts 334°
2026-05-05 12:19 51.48905 -4.36561 24040 ft 404 kts 333°
2026-05-05 12:19 51.51429 -4.38521 24037 ft 403 kts 333°
2026-05-05 12:19 51.53956 -4.40485 24042 ft 403 kts 333°
2026-05-05 12:20 51.56478 -4.42437 24040 ft 402 kts 333°
2026-05-05 12:20 51.59003 -4.44383 24041 ft 403 kts 333°
2026-05-05 12:20 51.61531 -4.46323 24044 ft 403 kts 333°
2026-05-05 12:20 51.64063 -4.48264 24044 ft 403 kts 333°
2026-05-05 12:21 51.66590 -4.50205 24044 ft 402 kts 333°
2026-05-05 12:21 51.69116 -4.52149 24045 ft 402 kts 333°
2026-05-05 12:21 51.71645 -4.54097 24044 ft 402 kts 333°
2026-05-05 12:21 51.74169 -4.56046 24050 ft 402 kts 332°
2026-05-05 12:22 51.76578 -4.58307 24053 ft 400 kts 323°
2026-05-05 12:22 51.78708 -4.61165 24051 ft 398 kts 313°
2026-05-05 12:22 51.80530 -4.64515 24052 ft 396 kts 307°
2026-05-05 12:22 51.82278 -4.67953 24055 ft 396 kts 308°
2026-05-05 12:23 51.84035 -4.71397 24056 ft 396 kts 308°
2026-05-05 12:23 51.85789 -4.74835 24058 ft 396 kts 307°
2026-05-05 12:23 51.87542 -4.78274 24063 ft 396 kts 307°
2026-05-05 12:23 51.89297 -4.81724 24060 ft 396 kts 307°
2026-05-05 12:24 51.91047 -4.85170 24061 ft 396 kts 307°
2026-05-05 12:24 51.92794 -4.88619 24065 ft 396 kts 307°
2026-05-05 12:24 51.94541 -4.92071 24069 ft 396 kts 307°
2026-05-05 12:24 51.96285 -4.95527 24064 ft 396 kts 307°
2026-05-05 12:25 51.98023 -4.98986 24063 ft 395 kts 307°
2026-05-05 12:25 51.99763 -5.02370 24066 ft 396 kts 312°
2026-05-05 12:25 52.01798 -5.05385 24068 ft 397 kts 322°
2026-05-05 12:25 52.04132 -5.07796 24064 ft 399 kts 331°
2026-05-05 12:26 52.06619 -5.09805 24067 ft 399 kts 332°
2026-05-05 12:26 52.09107 -5.11819 24068 ft 400 kts 333°
2026-05-05 12:26 52.11597 -5.13845 24072 ft 399 kts 332°
2026-05-05 12:26 52.14086 -5.15876 24067 ft 399 kts 332°
2026-05-05 12:27 52.16568 -5.17908 24069 ft 399 kts 332°
2026-05-05 12:27 52.19042 -5.19939 24074 ft 396 kts 332°
2026-05-05 12:27 52.21499 -5.21959 24071 ft 395 kts 332°
2026-05-05 12:27 52.23948 -5.23973 24069 ft 394 kts 332°
2026-05-05 12:28 52.26400 -5.25984 24073 ft 394 kts 332°
2026-05-05 12:28 52.28855 -5.27997 24071 ft 394 kts 332°
2026-05-05 12:28 52.31298 -5.30002 24075 ft 393 kts 332°
2026-05-05 12:28 52.33744 -5.32012 24072 ft 394 kts 332°
2026-05-05 12:29 52.36198 -5.34029 24072 ft 394 kts 332°
2026-05-05 12:29 52.38648 -5.36045 24074 ft 394 kts 332°
2026-05-05 12:29 52.41096 -5.38064 24090 ft 393 kts 332°
2026-05-05 12:29 52.43537 -5.40086 24084 ft 393 kts 331°
2026-05-05 12:30 52.45977 -5.42114 24077 ft 393 kts 332°
2026-05-05 12:30 52.48413 -5.44143 24078 ft 393 kts 331°
2026-05-05 12:30 52.50857 -5.46182 24079 ft 393 kts 331°
2026-05-05 12:30 52.53295 -5.48212 24080 ft 393 kts 331°
2026-05-05 12:31 52.55738 -5.50241 24079 ft 393 kts 332°
2026-05-05 12:31 52.58181 -5.52274 24081 ft 394 kts 331°
2026-05-05 12:31 52.60625 -5.54319 24080 ft 393 kts 332°
2026-05-05 12:31 52.63064 -5.56360 24083 ft 393 kts 331°
2026-05-05 12:32 52.65476 -5.58381 24086 ft 394 kts 331°
2026-05-05 12:32 52.67923 -5.60435 24081 ft 395 kts 331°
2026-05-05 12:32 52.70375 -5.62492 24083 ft 395 kts 331°
2026-05-05 12:32 52.72827 -5.64552 24082 ft 395 kts 331°
2026-05-05 12:33 52.75278 -5.66611 24082 ft 395 kts 331°
2026-05-05 12:33 52.77731 -5.68671 24083 ft 395 kts 331°
2026-05-05 12:33 52.80183 -5.70733 24081 ft 395 kts 331°
2026-05-05 12:33 52.82633 -5.72799 24082 ft 395 kts 330°
2026-05-05 12:34 52.85085 -5.74878 24080 ft 395 kts 330°
2026-05-05 12:34 52.87529 -5.76953 24091 ft 395 kts 330°
2026-05-05 12:34 52.89974 -5.79030 24083 ft 395 kts 330°
2026-05-05 12:34 52.92416 -5.81104 24081 ft 395 kts 330°
2026-05-05 12:35 52.94865 -5.83185 24084 ft 395 kts 330°
2026-05-05 12:35 52.97309 -5.85261 24085 ft 395 kts 330°
2026-05-05 12:35 52.99753 -5.87338 24085 ft 395 kts 330°
2026-05-05 12:35 53.02196 -5.89419 24084 ft 395 kts 330°
2026-05-05 12:36 53.04637 -5.91506 24078 ft 395 kts 330°
2026-05-05 12:36 53.07077 -5.93596 24079 ft 395 kts 330°
2026-05-05 12:36 53.09515 -5.95692 24079 ft 395 kts 330°
2026-05-05 12:36 53.11954 -5.97785 24084 ft 394 kts 330°
2026-05-05 12:37 53.14388 -5.99870 24081 ft 393 kts 330°
2026-05-05 12:37 53.16821 -6.01957 24082 ft 393 kts 330°
2026-05-05 12:37 53.19251 -6.04045 24082 ft 393 kts 330°
2026-05-05 12:37 53.21683 -6.06138 24083 ft 393 kts 330°
2026-05-05 12:38 53.24112 -6.08237 24085 ft 393 kts 330°
2026-05-05 12:38 53.26540 -6.10338 24084 ft 393 kts 330°
2026-05-05 12:38 53.28964 -6.12439 24084 ft 393 kts 330°
2026-05-05 12:38 53.31362 -6.14518 24084 ft 393 kts 330°
2026-05-05 12:39 53.33823 -6.16648 24084 ft 393 kts 330°
2026-05-05 12:39 53.36246 -6.18750 24085 ft 391 kts 330°
2026-05-05 12:39 53.38661 -6.20847 24084 ft 391 kts 330°
2026-05-05 12:39 53.41071 -6.22944 24085 ft 390 kts 330°
2026-05-05 12:40 53.43479 -6.25045 24084 ft 390 kts 330°
2026-05-05 12:40 53.45887 -6.27153 24078 ft 390 kts 330°
2026-05-05 12:40 53.48367 -6.29017 24078 ft 392 kts 339°
2026-05-05 12:40 53.51016 -6.30142 24079 ft 395 kts 349°
2026-05-05 12:41 53.53765 -6.30471 24076 ft 398 kts 359°
2026-05-05 12:41 53.56540 -6.30297 24079 ft 398 kts 360°
2026-05-05 12:41 53.59311 -6.30113 24083 ft 399 kts 359°
2026-05-05 12:41 53.62089 -6.29926 24077 ft 400 kts 359°
2026-05-05 12:42 53.64872 -6.29739 24080 ft 400 kts 359°
2026-05-05 12:42 53.67652 -6.29555 24080 ft 400 kts 359°
2026-05-05 12:42 53.70392 -6.29378 24071 ft 394 kts 359°
2026-05-05 12:42 53.73092 -6.29200 23843 ft 384 kts 359°
2026-05-05 12:43 53.75738 -6.29028 23429 ft 378 kts 359°
2026-05-05 12:43 53.78362 -6.28860 22931 ft 375 kts 359°
2026-05-05 12:43 53.80960 -6.28691 22457 ft 372 kts 359°
2026-05-05 12:43 53.83533 -6.28523 22002 ft 369 kts 359°
2026-05-05 12:44 53.86089 -6.28358 21530 ft 366 kts 359°
2026-05-05 12:44 53.88623 -6.28192 21075 ft 363 kts 359°
2026-05-05 12:44 53.91141 -6.28025 20625 ft 361 kts 360°
2026-05-05 12:44 53.93639 -6.27859 20178 ft 358 kts 360°
2026-05-05 12:45 53.96124 -6.27691 19735 ft 356 kts 360°
2026-05-05 12:45 53.98585 -6.27529 19296 ft 353 kts 360°
2026-05-05 12:45 54.01040 -6.27370 18862 ft 352 kts 360°
2026-05-05 12:45 54.03478 -6.27212 18429 ft 350 kts 360°
2026-05-05 12:46 54.05893 -6.27053 17992 ft 347 kts 360°
2026-05-05 12:46 54.07490 -6.26944 17708 ft 345 kts 360°
2026-05-05 12:46 54.09874 -6.26779 17270 ft 343 kts 360°
2026-05-05 12:46 54.12243 -6.26618 16842 ft 340 kts 360°
2026-05-05 12:47 54.14603 -6.26459 16427 ft 337 kts 360°
2026-05-05 12:47 54.16938 -6.26306 16030 ft 335 kts 360°
2026-05-05 12:47 54.19253 -6.26160 15758 ft 328 kts 360°
2026-05-05 12:47 54.21499 -6.26013 15682 ft 316 kts 360°
2026-05-05 12:48 54.23658 -6.25863 15610 ft 305 kts 360°
2026-05-05 12:48 54.25738 -6.25719 15542 ft 294 kts 360°
2026-05-05 12:48 54.27753 -6.25583 15354 ft 288 kts 359°
2026-05-05 12:48 54.29749 -6.25451 15037 ft 287 kts 359°
2026-05-05 12:49 54.31748 -6.25320 14692 ft 287 kts 359°
2026-05-05 12:49 54.33747 -6.25191 14346 ft 288 kts 360°
2026-05-05 12:49 54.35765 -6.25062 14103 ft 294 kts
2026-05-05 12:49 54.37823 -6.24929 14089 ft 298 kts 359°
2026-05-05 12:50 54.39898 -6.24791 14042 ft 299 kts
2026-05-05 12:50 54.42004 -6.24648 12958 ft 309 kts
2026-05-05 12:50 54.44133 -6.24500 12490 ft 297 kts 360°
2026-05-05 12:50 54.46153 -6.24358 12092 ft 285 kts
2026-05-05 12:51 54.48124 -6.24126 11714 ft 287 kts
2026-05-05 12:51 54.49990 -6.22926 11330 ft 292 kts 31°
2026-05-05 12:51 54.51396 -6.20400 10952 ft 296 kts 55°
2026-05-05 12:51 54.52435 -6.17340 10584 ft 296 kts 58°
2026-05-05 12:52 54.53423 -6.14247 10207 ft 295 kts 58°
2026-05-05 12:52 54.54408 -6.11153 9757 ft 296 kts 59°
2026-05-05 12:52 54.55391 -6.08076 9228 ft 298 kts 59°
2026-05-05 12:52 54.56298 -6.04857 8692 ft 302 kts 71°
2026-05-05 12:53 54.56468 -6.01327 8252 ft 293 kts 98°
2026-05-05 12:53 54.55732 -5.98110 7870 ft 290 kts 125°
2026-05-05 12:53 54.54254 -5.95801 7487 ft 288 kts 152°
2026-05-05 12:53 54.52352 -5.94878 7116 ft 285 kts 180°
2026-05-05 12:54 54.48932 -5.97556 6368 ft 273 kts 236°
2026-05-05 12:54 54.48191 -6.00456 6090 ft 261 kts 264°
2026-05-05 12:54 54.48050 -6.03576 6039 ft 262 kts 277°
2026-05-05 12:55 54.48242 -6.06685 5902 ft 261 kts 279°
2026-05-05 12:55 54.48442 -6.09783 5774 ft 262 kts 279°
2026-05-05 12:55 54.48643 -6.12888 5633 ft 261 kts 279°
2026-05-05 12:55 54.48843 -6.15983 5512 ft 260 kts 279°
2026-05-05 12:56 54.49045 -6.19080 5381 ft 260 kts 279°
2026-05-05 12:56 54.49242 -6.22156 5251 ft 259 kts 279°
2026-05-05 12:56 54.49440 -6.25234 5123 ft 259 kts 279°
2026-05-05 12:56 54.49637 -6.28300 4994 ft 258 kts 278°
2026-05-05 12:57 54.49834 -6.31353 4863 ft 254 kts 279°
2026-05-05 12:57 54.50024 -6.34326 4728 ft 240 kts 279°
2026-05-05 12:57 54.50202 -6.37110 4594 ft 228 kts 279°
2026-05-05 12:57 54.50370 -6.39720 4462 ft 217 kts 280°
2026-05-05 12:58 54.50783 -6.42174 4327 ft 209 kts 301°
2026-05-05 12:58 54.51661 -6.44113 4196 ft 204 kts 321°
2026-05-05 12:58 54.52861 -6.45374 4054 ft 204 kts 336°
2026-05-05 12:58 54.54117 -6.46370 3927 ft 198 kts 335°
2026-05-05 12:59 54.55338 -6.47350 3793 ft 189 kts 335°
2026-05-05 12:59 54.56507 -6.48291 3663 ft 182 kts 337°
2026-05-05 12:59 54.57726 -6.48600 3484 ft 180 kts 13°
2026-05-05 13:00 54.59336 -6.45373 2983 ft 191 kts 61°
2026-05-05 13:00 54.59897 -6.43288 2690 ft 193 kts 60°
2026-05-05 13:01 54.61544 -6.37150 1910 ft 180 kts 59°
2026-05-05 13:01 54.62042 -6.35282 1696 ft 159 kts 59°
2026-05-05 13:01 54.62475 -6.33635 1466 ft 145 kts 62°
2026-05-05 13:01 54.62870 -6.32089 1277 ft 137 kts 60°
2026-05-05 13:02 54.63303 -6.30645 1067 ft 136 kts 62°
2026-05-05 13:02 54.63711 -6.29172 985 ft 135 kts 61°
2026-05-05 13:02 54.64108 -6.27723 788 ft 133 kts 59°
2026-05-05 13:02 54.64487 -6.26255 624 ft 134 kts 60°
2026-05-05 13:03 54.64872 -6.24789 466 ft 134 kts 61°
2026-05-05 13:03 54.65276 -6.23329 300 ft 134 kts 58°
2026-05-05 13:03 54.65622 -6.22048 272 ft 84 kts 65°
2026-05-05 13:03 54.65763 -6.21523 272 ft 33 kts 65°
2026-05-05 13:04 54.65870 -6.21335 272 ft 17 kts 356°
2026-05-05 13:04 54.65931 -6.21375 274 ft 0 kts 334°
2026-05-05 13:04 54.65932 -6.21376 274 ft 0 kts 334°
2026-05-05 13:05 54.65939 -6.21382 272 ft 3 kts 333°
2026-05-05 13:05 54.65967 -6.21385 272 ft 5 kts
2026-05-05 13:05 54.65991 -6.21357 274 ft 5 kts 48°
2026-05-05 13:05 54.66013 -6.21279 272 ft 7 kts 64°
2026-05-05 13:06 54.66040 -6.21216 272 ft 6 kts 30°
2026-05-05 13:06 54.66094 -6.21235 272 ft 10 kts 335°
2026-05-05 13:06 54.66159 -6.21286 272 ft 9 kts 335°
2026-05-05 13:06 54.66195 -6.21359 272 ft 7 kts 259°
2026-05-05 13:07 54.66186 -6.21393 272 ft 0 kts 243°
2026-05-05 13:07 54.66185 -6.21395 272 ft 1 kts 243°
2026-05-05 13:07 54.66182 -6.21408 272 ft 1 kts 244°
2026-05-05 13:07 54.66180 -6.21413 272 ft 0 kts 244°
2026-05-05 13:12 54.66180 -6.21414 272 ft 0 kts 244°